SCP
-0 0 0 0 -0 -0 -0 -0 -0 -0 -0 0 0 -0 -0 -0 -0 0 0 0 0 0 0 -0 0 0 0 0 -0 0 0 0 -0 -0 0 0 0 -0 0 -0 0 -0 0 0 -0
-0 -0 0 0 -0 -0 -0 -0 -0 -0 -0 -0 0 -0 -0 -0 0 0 0 0 -0 -0 0 0 0 -0 -0 -0 -0 0 0 -0 -0 -0 0 -0 0 0 0 -0 -0 -0 0 -0 -0
0 -0 -0 -0 -0 -0 -0 -0 -0 -0 -0 -0 0 0 -0 0 0 0 0 0 0 -0 0 0 -0 0 0 0 0 0 0 -0 -0 0 -0 -0 -0 0 -0 -0 -0 -0 0 0 0
0 -0 -0 -0 -0 -0 -0 -0 -0 -0 -0 -0 -0 0 0 0 -0 -0 0 0 0 0 0 -0 0 -0 0 -0 0 0 0 -0 0 -0 0 0 -0 -0 0 0 0 0 0 0 0
0 -0 -0 0 -0 -0 -0 -0 -0 -0 -0 -0 -0 0 0 0 0 0 0 -0 0 0 0 0 0 0 0 0 -0 0 -0 -0 0 -0 0 -0 0 0 0 -0 0 0 0 0 0
-0 -0 -0 -0 -0 -0 -0 -0 -0 -0 -0 -0 -0 0 0 0 0 -0 -0 -0 0 0 -0 -0 0 -0 0 0 0 0 -0 -0 0 0 -0 -0 0 0 0 0 0 0 0 0 0
-0 -0 -0 -0 -0 -0 -0 -0 -0 -0 -0 -0 -0 0 0 -0 -0 -0 -0 0 0 0 -0 0 -0 -0 0 0 0 -0 0 0 0 0 0 -0 -0 -0 -0 -0 0 0 0 0 0
-0 -0 -0 -0 -0 -0 0 -0 -0 -0 0 0 0 0 0 0 0 -0 0 0 0 0 0 0 -0 0 0 0 0 -0 -0 -0 0 0 0 0 0 -1 -0 -0 -0 -0 0 0 0
-0 -0 -0 -0 -0 -0 -0 -0 -0 0 0 0 0 -0 -0 0 0 0 0 0 0 0 0 0 -0 0 0 0 0 0 0 0 -0 0 0 0 0 -0 -0 0 0 0 0 0 0
-0 -0 -0 -0 -0 -0 -0 0 0 0 0 0 0 0 0 0 -0 0 0 0 0 0 0 0 0 0 0 0 -0 0 0 0 0 0 0 0 0 0 0 0 0 0 0 0 0
-0 -0 -0 -0 -0 -0 -0 0 0 0 0 0 0 -0 -0 -0 0 0 0 0 0 0 0 0 0 0 0 0 0 0 0 0 0 0 0 -0 -0 -0 -0 0 0 0 0 0 -0
-0 -0 -0 -0 -0 -0 0 0 0 0 0 0 -0 -0 -0 0 0 0 0 0 0 0 0 0 -0 -0 0 0 0 0 0 0 0 0 0 0 0 -0 -0 0 0 0 0 0 0
-0 -0 -0 -0 -0 -0 0 0 0 -0 0 0 0 0 0 0 0 -0 -0 0 0 0 0 0 -0 -0 0 0 0 0 0 0 0 -0 0 0 -0 -0 0 0 0 0 0 0 -0
-0 -0 -0 -0 -0 -0 0 0 -0 -0 0 0 0 0 -0 0 0 0 -0 0 0 0 0 0 -0 -0 0 0 0 0 0 0 0 -0 -0 -0 -0 0 -0 -0 0 0 0 0 0
-0 -0 -0 0 -0 -0 -0 -0 -0 0 0 0 0 0 -0 0 0 -0 0 0 -0 0 0 -0 -0 -0 0 -0 0 0 0 0 0 0 0 -0 0 0 -0 -0 0 0 0 0 0
0 -0 -0 -0 -0 -0 -0 0 0 0 0 -0 0 0 -0 0 -0 0 -0 0 0 0 0 -0 -0 0 -0 0 0 0 0 0 0 0 0 0 0 0 -0 0 0 0 0 0 0
0 0 -0 0 0 -0 -0 0 -0 -0 0 -0 -0 -0 -0 0 -0 0 -0 0 0 0 -0 -0 -0 -0 0 0 0 0 0 0 0 0 0 0 0 0 0 0 0 0 0 0 0
0 0 0 0 -0 0 0 0 0 0 -0 -0 -0 -0 -0 -0 -0 0 0 -0 -0 -0 -0 -0 -0 -0 -0 0 -0 0 0 0 0 0 0 0 0 0 0 0 0 -0 0 0 0
0 -0 0 0 -0 0 0 0 0 0 0 0 0 0 -0 -0 -0 -0 0 -0 -0 0 -0 0 0 0 0 0 -0 0 0 0 0 0 0 0 0 -0 0 0 0 0 0 0 0
0 0 0 0 0 0 0 0 0 0 0 0 0 -0 -0 -0 -0 0 0 -0 -0 -0 -0 -0 0 0 0 0 0 -0 0 0 0 0 0 -0 0 0 0 0 0 0 0 0 0
0 0 0 0 0 0 0 0 0 0 0 0 0 0 0 0 0 -0 -0 -0 -0 -0 -0 -0 0 0 0 0 0 0 0 0 0 0 0 0 0 0 0 0 0 0 0 0 0
0 0 0 0 0 0 0 0 0 0 0 0 0 0 0 0 0 0 0 0 0 -0 -0 0 0 0 0 0 0 0 0 0 0 0 0 0 0 0 0 0 0 0 0 0 0
0 0 0 0 0 0 0 0 0 0 0 0 0 0 0 0 0 0 0 0 0 0 0 0 0 0 0 0 0 0 0 0 0 0 0 0 0 0 0 0 0 0 0 -0 -0
0 0 0 0 0 0 0 0 0 0 0 0 0 0 0 0 0 0 0 0 0 0 0 0 0 0 0 0 0 0 0 0 0 0 0 0 0 0 0 0 0 0 0 0 0
0 0 0 0 0 0 0 0 0 0 0 0 0 0 0 0 0 0 0 0 0 0 0 0 0 0 0 0 -0 0 0 0 0 0 0 0 -0 -0 0 0 0 0 0 0 0
0 0 0 0 0 0 0 0 0 0 0 0 0 0 0 0 0 0 0 0 0 0 0 0 0 0 0 0 0 0 0 0 0 0 0 0 0 0 0 0 -0 -0 -0 0 0
0 0 0 0 0 0 0 0 0 0 0 0 0 0 0 0 0 0 0 0 0 0 0 0 0 0 -0 0 0 0 0 -0 0 0 0 0 0 0 -0 -0 -0 -0 -0 0 0
Wind_Speed_500mb
30 36 41 46 50 53 55 53 49 46 34 28 23 17 12 6 4 7 10 11 9 16 12 16 24 37 23 15 34 24 8 4 9 9 9 46 24 37 48 38 15 19 34 26 28
28 33 39 44 49 53 56 54 49 47 32 25 22 15 9 4 7 15 11 9 15 13 8 14 26 43 26 39 6 17 10 25 41 27 25 46 49 49 38 44 34 32 35 31 21
26 31 37 42 47 52 56 55 49 45 31 24 20 13 4 2 3 9 16 17 16 10 9 12 22 19 24 45 17 6 9 16 20 45 58 43 46 48 43 26 41 41 37 28 29
25 30 35 41 45 51 56 55 48 44 29 22 17 10 3 4 5 11 12 11 5 6 9 16 24 32 13 10 20 20 38 42 40 62 52 33 46 38 42 30 41 38 37 32 22
25 29 34 40 45 50 55 54 49 38 27 19 14 9 3 7 14 17 8 7 2 8 11 16 13 3 14 22 42 18 32 40 37 57 53 48 34 29 39 39 38 36 34 24 24
26 28 33 38 44 49 54 50 44 34 23 16 10 11 7 9 16 17 13 8 3 10 23 35 47 55 5 11 15 17 27 35 6 29 39 35 39 27 34 36 36 40 31 34 29
26 28 32 37 43 49 53 48 42 35 17 14 7 11 16 12 14 2 8 6 3 16 30 30 52 31 17 17 19 45 16 19 13 29 21 47 19 20 43 41 38 40 41 27 38
25 28 30 36 42 49 52 42 38 24 10 12 4 9 13 7 11 12 1 8 8 16 17 9 28 18 15 11 13 14 13 11 14 23 14 10 6 39 46 42 43 40 45 36 32
24 27 29 34 40 48 47 37 32 24 12 7 5 3 18 14 18 17 14 18 16 15 16 15 1 3 19 6 10 13 7 12 23 28 13 13 8 44 50 46 47 41 42 42 39
24 25 28 32 38 46 37 41 35 10 11 2 7 4 22 29 16 18 19 14 26 21 20 19 7 4 6 8 7 13 13 21 22 15 14 26 16 39 55 47 46 53 45 47 45
23 24 27 29 34 35 32 46 47 7 42 28 7 26 28 18 23 20 17 11 19 29 10 36 4 20 25 23 6 16 18 27 29 24 5 3 16 38 52 47 42 51 57 52 56
23 23 25 26 30 21 30 26 25 26 23 25 34 39 45 10 14 16 18 8 9 14 26 12 24 43 5 21 20 5 7 10 14 8 9 14 7 31 49 46 41 63 53 50 47
23 23 24 24 25 17 32 22 29 27 11 28 29 31 28 17 16 25 32 23 17 18 22 11 24 9 5 12 14 6 6 12 22 9 7 10 18 37 34 44 47 47 46 47 66
22 22 23 25 18 23 24 27 30 31 5 11 22 23 27 27 12 37 37 29 15 19 23 18 35 17 22 12 7 5 4 10 34 15 7 9 11 5 27 28 38 54 56 48 64
22 22 17 23 25 20 21 42 30 18 6 20 21 15 34 30 9 25 31 37 18 22 11 32 23 16 11 1 2 7 16 25 19 11 7 3 5 29 39 17 23 44 61 63 71
22 23 18 22 25 14 32 38 23 4 10 15 19 4 12 34 39 33 40 48 35 22 25 24 56 8 4 11 11 9 11 7 8 8 6 13 12 10 13 22 22 37 57 65 70
22 24 23 24 17 23 23 36 4 7 8 14 23 17 18 14 22 19 17 13 13 4 16 21 26 11 10 12 11 13 14 8 10 3 10 3 10 17 23 11 12 32 56 48 65
23 25 24 24 13 12 21 8 6 17 20 11 15 21 19 15 17 16 5 12 11 15 10 7 25 11 17 11 15 4 12 10 8 5 9 5 7 7 17 22 32 20 48 45 47
23 20 24 4 1 7 13 4 8 13 25 15 12 5 15 13 13 15 7 10 16 19 15 8 10 8 8 12 23 2 11 9 5 8 8 6 11 14 34 38 21 21 5 52 49
21 23 29 7 11 10 1 11 9 11 19 14 11 13 13 15 16 17 17 18 19 24 35 17 5 5 7 13 11 15 3 21 16 8 8 11 7 10 14 25 23 13 22 8 56
19 12 2 22 16 9 6 13 19 16 10 11 13 13 21 13 19 11 16 19 26 26 28 18 12 1 9 4 4 13 9 7 7 5 1 4 11 12 15 12 12 16 5 42 85
9 8 23 27 6 10 8 11 18 13 13 5 10 11 13 16 10 1 8 8 28 38 5 10 8 7 16 6 12 12 18 15 9 8 5 3 12 13 9 19 10 20 30 53 86
8 16 16 20 5 8 24 23 2 7 12 11 9 15 12 12 11 14 10 11 28 13 6 6 6 7 16 10 3 8 11 11 10 8 9 8 11 6 3 13 13 52 57 62 79
7 6 15 25 30 14 14 13 10 17 10 10 14 16 13 14 5 12 6 5 19 11 8 8 5 9 10 16 11 14 10 10 14 8 8 12 9 10 5 14 37 27 21 21 22
11 16 9 8 15 27 26 15 16 6 18 16 8 14 13 8 13 5 16 7 15 13 6 7 1 6 12 16 29 9 2 26 18 16 13 15 12 16 12 12 28 21 9 13 37
9 11 33 33 10 7 8 3 19 17 9 11 10 19 17 6 8 13 14 12 10 7 4 2 3 7 13 20 28 6 13 16 5 14 5 15 15 17 33 41 26 22 24 16 24
13 34 21 24 5 6 9 9 16 23 14 12 15 14 13 18 34 32 25 30 9 4 3 6 4 4 12 18 21 14 29 16 12 15 11 12 17 42 25 30 34 17 9 17 28
Wind_Direction_500mb
1 4 5 8 10 7 5 0 359 354 350 338 338 343 332 313 253 215 206 226 288 318 334 317 308 312 292 201 141 125 88 119 277 198 142 114 119 105 118 151 193 144 125 106 110
355 358 359 1 3 4 1 357 356 352 352 337 335 340 330 301 236 219 197 264 273 315 343 320 330 333 15 155 248 116 131 174 213 199 120 114 112 142 139 134 128 121 112 103 85
346 350 352 354 358 358 358 354 353 352 355 340 332 330 323 248 242 246 249 260 288 301 323 307 334 334 47 73 5 165 176 99 144 121 111 119 122 130 129 129 146 141 117 104 106
333 340 346 346 352 354 353 350 348 346 345 340 327 315 268 183 21 358 229 254 264 325 336 17 18 350 354 9 199 84 68 81 84 107 99 107 142 115 119 141 130 123 122 123 117
322 331 338 340 345 350 349 347 345 346 339 341 320 297 257 288 291 311 249 176 326 323 323 340 250 352 36 326 52 20 84 72 90 119 121 122 115 114 113 113 120 126 126 123 125
314 323 331 334 340 346 345 343 342 341 337 339 310 285 285 282 328 307 157 162 18 346 351 307 280 102 17 353 70 1 26 28 62 112 127 121 128 132 142 139 143 146 136 138 137
309 318 326 331 337 343 341 339 336 327 317 338 297 272 280 254 320 327 182 161 56 346 303 63 86 94 234 323 355 45 22 7 329 136 134 144 167 139 155 155 161 155 151 150 154
305 315 323 330 336 340 339 337 338 340 307 322 281 259 268 275 216 290 297 277 285 272 293 332 78 96 180 173 38 55 67 353 284 142 179 149 188 149 166 174 177 170 166 165 177
300 311 321 329 337 338 340 338 331 326 313 305 106 315 281 266 228 205 207 260 263 292 303 306 298 178 100 136 65 3 102 233 295 225 167 188 180 165 178 190 175 181 174 174 170
296 308 318 328 338 340 346 353 344 342 358 117 150 300 253 240 242 207 188 251 287 274 294 252 195 66 61 106 192 173 166 222 214 191 186 193 209 164 180 200 177 182 189 184 186
293 304 314 328 339 341 354 9 12 34 324 271 274 242 302 222 178 196 184 281 274 295 277 280 101 253 218 212 230 173 195 189 213 230 188 333 163 174 178 205 196 182 194 203 196
292 300 310 326 339 337 344 7 356 322 307 266 265 269 247 145 173 203 187 212 269 271 284 311 238 233 188 201 201 23 40 288 323 196 95 21 196 185 181 200 200 176 198 206 194
289 299 309 319 325 324 328 333 347 333 280 292 247 245 236 233 254 220 199 211 253 287 284 278 278 321 30 74 68 267 272 54 71 16 66 14 326 167 194 193 198 191 200 200 183
284 295 311 317 316 324 35 350 340 327 320 251 199 237 230 218 244 238 221 212 216 250 276 279 309 306 95 114 132 253 208 84 43 56 307 31 309 338 173 198 202 198 198 195 186
280 287 305 316 313 338 342 342 324 328 331 151 189 199 202 185 245 212 232 213 244 268 289 278 305 354 9 75 147 233 74 99 94 121 79 108 114 336 334 219 208 198 200 202 191
273 282 287 292 295 322 347 327 315 17 249 173 153 169 210 207 233 222 230 206 226 260 281 280 296 262 273 5 349 67 105 33 65 99 19 235 121 238 213 235 227 201 206 205 192
269 276 278 281 281 312 335 329 5 224 177 140 161 187 221 194 233 225 186 193 187 266 266 287 285 314 49 348 349 45 48 352 1 336 243 99 61 234 269 247 30 190 198 201 188
270 275 276 271 314 351 348 348 254 278 258 140 168 164 192 200 216 254 241 209 225 228 284 302 317 12 359 342 277 112 147 147 240 312 262 189 216 229 280 46 33 360 199 182 174
276 274 275 209 138 357 311 298 250 359 341 16 315 181 211 199 155 204 215 213 214 201 216 250 274 223 280 230 317 106 24 178 151 311 16 156 307 300 63 64 63 306 353 184 188
285 288 268 215 193 216 116 248 255 36 351 349 340 259 214 197 171 159 198 222 241 234 207 252 178 201 293 306 45 111 36 21 350 357 315 333 298 250 134 168 219 241 258 199 206
299 309 105 154 214 194 213 252 308 73 357 21 342 310 341 3 173 209 218 224 205 237 228 201 163 192 111 253 66 25 42 84 191 215 158 275 265 231 190 171 156 44 59 20 356
297 258 177 188 171 214 228 249 338 351 334 294 302 306 4 337 333 174 78 60 8 214 344 348 142 156 207 179 114 143 177 156 161 255 206 195 293 23 112 123 95 344 45 15 14
264 268 190 183 219 256 286 264 189 312 293 352 322 346 351 334 351 14 84 39 48 58 47 326 7 18 343 22 301 202 228 115 109 63 224 133 261 30 111 72 70 38 15 5 11
283 283 205 210 235 282 294 266 206 218 310 319 308 318 311 313 297 306 1 136 88 97 64 60 77 142 205 253 264 299 219 155 155 128 198 223 217 247 273 81 75 56 5 21 336
230 257 310 205 229 223 255 316 304 173 198 270 295 251 271 314 346 324 350 96 129 133 108 98 110 335 306 314 303 322 168 267 193 166 177 276 160 222 154 148 117 130 24 98 148
261 331 336 307 327 244 225 254 297 295 171 231 249 285 291 32 1 20 29 24 40 327 132 130 270 347 313 296 310 327 258 300 345 95 193 49 52 100 126 145 149 188 191 165 211
262 299 283 288 267 313 190 205 270 273 336 310 324 342 39 19 350 333 328 320 290 16 236 142 176 49 289 313 322 341 353 334 66 43 61 56 118 137 144 143 146 148 110 63 54
Wind_Speed_850mb
30 36 41 46 50 53 55 53 49 46 34 28 23 17 12 6 4 7 10 11 9 16 12 16 24 37 23 15 34 24 8 4 9 9 9 46 24 37 48 38 15 19 34 26 28
28 33 39 44 49 53 56 54 49 47 32 25 22 15 9 4 7 15 11 9 15 13 8 14 26 43 26 39 6 17 10 25 41 27 25 46 49 49 38 44 34 32 35 31 21
26 31 37 42 47 52 56 55 49 45 31 24 20 13 4 2 3 9 16 17 16 10 9 12 22 19 24 45 17 6 9 16 20 45 58 43 46 48 43 26 41 41 37 28 29
25 30 35 41 45 51 56 55 48 44 29 22 17 10 3 4 5 11 12 11 5 6 9 16 24 32 13 10 20 20 38 42 40 62 52 33 46 38 42 30 41 38 37 32 22
25 29 34 40 45 50 55 54 49 38 27 19 14 9 3 7 14 17 8 7 2 8 11 16 13 3 14 22 42 18 32 40 37 57 53 48 34 29 39 39 38 36 34 24 24
26 28 33 38 44 49 54 50 44 34 23 16 10 11 7 9 16 17 13 8 3 10 23 35 47 55 5 11 15 17 27 35 6 29 39 35 39 27 34 36 36 40 31 34 29
26 28 32 37 43 49 53 48 42 35 17 14 7 11 16 12 14 2 8 6 3 16 30 30 52 31 17 17 19 45 16 19 13 29 21 47 19 20 43 41 38 40 41 27 38
25 28 30 36 42 49 52 42 38 24 10 12 4 9 13 7 11 12 1 8 8 16 17 9 28 18 15 11 13 14 13 11 14 23 14 10 6 39 46 42 43 40 45 36 32
24 27 29 34 40 48 47 37 32 24 12 7 5 3 18 14 18 17 14 18 16 15 16 15 1 3 19 6 10 13 7 12 23 28 13 13 8 44 50 46 47 41 42 42 39
24 25 28 32 38 46 37 41 35 10 11 2 7 4 22 29 16 18 19 14 26 21 20 19 7 4 6 8 7 13 13 21 22 15 14 26 16 39 55 47 46 53 45 47 45
23 24 27 29 34 35 32 46 47 7 42 28 7 26 28 18 23 20 17 11 19 29 10 36 4 20 25 23 6 16 18 27 29 24 5 3 16 38 52 47 42 51 57 52 56
23 23 25 26 30 21 30 26 25 26 23 25 34 39 45 10 14 16 18 8 9 14 26 12 24 43 5 21 20 5 7 10 14 8 9 14 7 31 49 46 41 63 53 50 47
23 23 24 24 25 17 32 22 29 27 11 28 29 31 28 17 16 25 32 23 17 18 22 11 24 9 5 12 14 6 6 12 22 9 7 10 18 37 34 44 47 47 46 47 66
22 22 23 25 18 23 24 27 30 31 5 11 22 23 27 27 12 37 37 29 15 19 23 18 35 17 22 12 7 5 4 10 34 15 7 9 11 5 27 28 38 54 56 48 64
22 22 17 23 25 20 21 42 30 18 6 20 21 15 34 30 9 25 31 37 18 22 11 32 23 16 11 1 2 7 16 25 19 11 7 3 5 29 39 17 23 44 61 63 71
22 23 18 22 25 14 32 38 23 4 10 15 19 4 12 34 39 33 40 48 35 22 25 24 56 8 4 11 11 9 11 7 8 8 6 13 12 10 13 22 22 37 57 65 70
22 24 23 24 17 23 23 36 4 7 8 14 23 17 18 14 22 19 17 13 13 4 16 21 26 11 10 12 11 13 14 8 10 3 10 3 10 17 23 11 12 32 56 48 65
23 25 24 24 13 12 21 8 6 17 20 11 15 21 19 15 17 16 5 12 11 15 10 7 25 11 17 11 15 4 12 10 8 5 9 5 7 7 17 22 32 20 48 45 47
23 20 24 4 1 7 13 4 8 13 25 15 12 5 15 13 13 15 7 10 16 19 15 8 10 8 8 12 23 2 11 9 5 8 8 6 11 14 34 38 21 21 5 52 49
21 23 29 7 11 10 1 11 9 11 19 14 11 13 13 15 16 17 17 18 19 24 35 17 5 5 7 13 11 15 3 21 16 8 8 11 7 10 14 25 23 13 22 8 56
19 12 2 22 16 9 6 13 19 16 10 11 13 13 21 13 19 11 16 19 26 26 28 18 12 1 9 4 4 13 9 7 7 5 1 4 11 12 15 12 12 16 5 42 85
9 8 23 27 6 10 8 11 18 13 13 5 10 11 13 16 10 1 8 8 28 38 5 10 8 7 16 6 12 12 18 15 9 8 5 3 12 13 9 19 10 20 30 53 86
8 16 16 20 5 8 24 23 2 7 12 11 9 15 12 12 11 14 10 11 28 13 6 6 6 7 16 10 3 8 11 11 10 8 9 8 11 6 3 13 13 52 57 62 79
7 6 15 25 30 14 14 13 10 17 10 10 14 16 13 14 5 12 6 5 19 11 8 8 5 9 10 16 11 14 10 10 14 8 8 12 9 10 5 14 37 27 21 21 22
11 16 9 8 15 27 26 15 16 6 18 16 8 14 13 8 13 5 16 7 15 13 6 7 1 6 12 16 29 9 2 26 18 16 13 15 12 16 12 12 28 21 9 13 37
9 11 33 33 10 7 8 3 19 17 9 11 10 19 17 6 8 13 14 12 10 7 4 2 3 7 13 20 28 6 13 16 5 14 5 15 15 17 33 41 26 22 24 16 24
13 34 21 24 5 6 9 9 16 23 14 12 15 14 13 18 34 32 25 30 9 4 3 6 4 4 12 18 21 14 29 16 12 15 11 12 17 42 25 30 34 17 9 17 28
Wind_Direction_850mb
1 4 5 8 10 7 5 0 359 354 350 338 338 343 332 313 253 215 206 226 288 318 334 317 308 312 292 201 141 125 88 119 277 198 142 114 119 105 118 151 193 144 125 106 110
355 358 359 1 3 4 1 357 356 352 352 337 335 340 330 301 236 219 197 264 273 315 343 320 330 333 15 155 248 116 131 174 213 199 120 114 112 142 139 134 128 121 112 103 85
346 350 352 354 358 358 358 354 353 352 355 340 332 330 323 248 242 246 249 260 288 301 323 307 334 334 47 73 5 165 176 99 144 121 111 119 122 130 129 129 146 141 117 104 106
333 340 346 346 352 354 353 350 348 346 345 340 327 315 268 183 21 358 229 254 264 325 336 17 18 350 354 9 199 84 68 81 84 107 99 107 142 115 119 141 130 123 122 123 117
322 331 338 340 345 350 349 347 345 346 339 341 320 297 257 288 291 311 249 176 326 323 323 340 250 352 36 326 52 20 84 72 90 119 121 122 115 114 113 113 120 126 126 123 125
314 323 331 334 340 346 345 343 342 341 337 339 310 285 285 282 328 307 157 162 18 346 351 307 280 102 17 353 70 1 26 28 62 112 127 121 128 132 142 139 143 146 136 138 137
309 318 326 331 337 343 341 339 336 327 317 338 297 272 280 254 320 327 182 161 56 346 303 63 86 94 234 323 355 45 22 7 329 136 134 144 167 139 155 155 161 155 151 150 154
305 315 323 330 336 340 339 337 338 340 307 322 281 259 268 275 216 290 297 277 285 272 293 332 78 96 180 173 38 55 67 353 284 142 179 149 188 149 166 174 177 170 166 165 177
300 311 321 329 337 338 340 338 331 326 313 305 106 315 281 266 228 205 207 260 263 292 303 306 298 178 100 136 65 3 102 233 295 225 167 188 180 165 178 190 175 181 174 174 170
296 308 318 328 338 340 346 353 344 342 358 117 150 300 253 240 242 207 188 251 287 274 294 252 195 66 61 106 192 173 166 222 214 191 186 193 209 164 180 200 177 182 189 184 186
293 304 314 328 339 341 354 9 12 34 324 271 274 242 302 222 178 196 184 281 274 295 277 280 101 253 218 212 230 173 195 189 213 230 188 333 163 174 178 205 196 182 194 203 196
292 300 310 326 339 337 344 7 356 322 307 266 265 269 247 145 173 203 187 212 269 271 284 311 238 233 188 201 201 23 40 288 323 196 95 21 196 185 181 200 200 176 198 206 194
289 299 309 319 325 324 328 333 347 333 280 292 247 245 236 233 254 220 199 211 253 287 284 278 278 321 30 74 68 267 272 54 71 16 66 14 326 167 194 193 198 191 200 200 183
284 295 311 317 316 324 35 350 340 327 320 251 199 237 230 218 244 238 221 212 216 250 276 279 309 306 95 114 132 253 208 84 43 56 307 31 309 338 173 198 202 198 198 195 186
280 287 305 316 313 338 342 342 324 328 331 151 189 199 202 185 245 212 232 213 244 268 289 278 305 354 9 75 147 233 74 99 94 121 79 108 114 336 334 219 208 198 200 202 191
273 282 287 292 295 322 347 327 315 17 249 173 153 169 210 207 233 222 230 206 226 260 281 280 296 262 273 5 349 67 105 33 65 99 19 235 121 238 213 235 227 201 206 205 192
269 276 278 281 281 312 335 329 5 224 177 140 161 187 221 194 233 225 186 193 187 266 266 287 285 314 49 348 349 45 48 352 1 336 243 99 61 234 269 247 30 190 198 201 188
270 275 276 271 314 351 348 348 254 278 258 140 168 164 192 200 216 254 241 209 225 228 284 302 317 12 359 342 277 112 147 147 240 312 262 189 216 229 280 46 33 360 199 182 174
276 274 275 209 138 357 311 298 250 359 341 16 315 181 211 199 155 204 215 213 214 201 216 250 274 223 280 230 317 106 24 178 151 311 16 156 307 300 63 64 63 306 353 184 188
285 288 268 215 193 216 116 248 255 36 351 349 340 259 214 197 171 159 198 222 241 234 207 252 178 201 293 306 45 111 36 21 350 357 315 333 298 250 134 168 219 241 258 199 206
299 309 105 154 214 194 213 252 308 73 357 21 342 310 341 3 173 209 218 224 205 237 228 201 163 192 111 253 66 25 42 84 191 215 158 275 265 231 190 171 156 44 59 20 356
297 258 177 188 171 214 228 249 338 351 334 294 302 306 4 337 333 174 78 60 8 214 344 348 142 156 207 179 114 143 177 156 161 255 206 195 293 23 112 123 95 344 45 15 14
264 268 190 183 219 256 286 264 189 312 293 352 322 346 351 334 351 14 84 39 48 58 47 326 7 18 343 22 301 202 228 115 109 63 224 133 261 30 111 72 70 38 15 5 11
283 283 205 210 235 282 294 266 206 218 310 319 308 318 311 313 297 306 1 136 88 97 64 60 77 142 205 253 264 299 219 155 155 128 198 223 217 247 273 81 75 56 5 21 336
230 257 310 205 229 223 255 316 304 173 198 270 295 251 271 314 346 324 350 96 129 133 108 98 110 335 306 314 303 322 168 267 193 166 177 276 160 222 154 148 117 130 24 98 148
261 331 336 307 327 244 225 254 297 295 171 231 249 285 291 32 1 20 29 24 40 327 132 130 270 347 313 296 310 327 258 300 345 95 193 49 52 100 126 145 149 188 191 165 211
262 299 283 288 267 313 190 205 270 273 336 310 324 342 39 19 350 333 328 320 290 16 236 142 176 49 289 313 322 341 353 334 66 43 61 56 118 137 144 143 146 148 110 63 54